TimeAKDT,TemperatureF,Dew PointF,Humidity,Sea Level PressureIn,VisibilityMPH,Wind Direction,Wind SpeedMPH,Gust SpeedMPH,PrecipitationIn,Events,Conditions,WindDirDegrees,DateUTC
12:16 AM,-9999,-9999,N/A,30.07,10.0,WSW,8.1,-,N/A,,Clear,250,2013-03-25 08:16:00
12:36 AM,-9999,-9999,N/A,30.07,10.0,WSW,8.1,-,N/A,,Clear,250,2013-03-25 08:36:00
12:56 AM,-23.8,-9999,N/A,30.08,10.0,WSW,8.1,-,N/A,,Clear,250,2013-03-25 08:56:00
1:16 AM,-23.8,-9999,N/A,30.08,10.0,WSW,9.2,-,N/A,,Clear,250,2013-03-25 09:16:00
1:36 AM,-9999,-9999,N/A,30.07,10.0,West,8.1,-,N/A,,Clear,260,2013-03-25 09:36:00
1:56 AM,-23.8,-9999,N/A,30.07,10.0,West,8.1,-,N/A,,Clear,260,2013-03-25 09:56:00
2:16 AM,-22.0,-29.2,69,30.07,10.0,West,8.1,-,N/A,,Clear,260,2013-03-25 10:16:00
2:36 AM,-9999,-9999,N/A,30.06,10.0,West,8.1,-,N/A,,Clear,260,2013-03-25 10:36:00
2:56 AM,-23.8,-9999,N/A,30.07,10.0,WSW,8.1,-,N/A,,Clear,250,2013-03-25 10:56:00
3:16 AM,-23.8,-9999,N/A,30.06,10.0,West,8.1,-,N/A,,Clear,260,2013-03-25 11:16:00
3:36 AM,-9999,-9999,N/A,30.06,10.0,WSW,9.2,-,N/A,,Clear,250,2013-03-25 11:36:00
3:56 AM,-23.8,-9999,N/A,30.06,10.0,WSW,6.9,-,N/A,,Clear,250,2013-03-25 11:56:00
4:36 AM,-23.8,-9999,N/A,30.06,10.0,WSW,8.1,-,N/A,,Clear,250,2013-03-25 12:36:00
4:56 AM,-23.8,-9999,N/A,30.06,10.0,West,5.8,-,N/A,,Clear,260,2013-03-25 12:56:00
5:16 AM,-23.8,-9999,N/A,30.06,10.0,West,5.8,-,N/A,,Clear,260,2013-03-25 13:16:00
5:36 AM,-23.8,-9999,N/A,30.05,10.0,West,5.8,-,N/A,,Clear,260,2013-03-25 13:36:00
5:56 AM,-25.6,-9999,N/A,30.04,10.0,WSW,8.1,-,N/A,,Clear,250,2013-03-25 13:56:00
6:16 AM,-9999,-9999,N/A,30.03,10.0,West,8.1,-,N/A,,Clear,260,2013-03-25 14:16:00
6:36 AM,-25.6,-9999,N/A,30.03,10.0,West,6.9,-,N/A,,Clear,260,2013-03-25 14:36:00
6:56 AM,-27.4,-9999,N/A,30.03,10.0,West,6.9,-,N/A,,Clear,260,2013-03-25 14:56:00
7:16 AM,-27.4,-9999,N/A,30.03,10.0,West,9.2,-,N/A,,Clear,260,2013-03-25 15:16:00
7:36 AM,-27.4,-9999,N/A,30.03,10.0,West,8.1,-,N/A,,Clear,260,2013-03-25 15:36:00
7:56 AM,-9999,-9999,N/A,30.02,10.0,WSW,9.2,-,N/A,,Clear,250,2013-03-25 15:56:00
8:16 AM,-9999,-9999,N/A,30.02,10.0,WSW,10.4,-,N/A,,Clear,250,2013-03-25 16:16:00
8:36 AM,-9999,-9999,N/A,30.01,10.0,West,9.2,-,N/A,,Clear,260,2013-03-25 16:36:00
8:56 AM,-9999,-9999,N/A,30.01,10.0,West,9.2,-,N/A,,Clear,260,2013-03-25 16:56:00
9:16 AM,-9999,-9999,N/A,30.01,8.0,West,9.2,-,N/A,,Clear,260,2013-03-25 17:16:00
9:36 AM,-9999,-9999,N/A,30.00,7.0,West,9.2,-,N/A,,Clear,260,2013-03-25 17:36:00
9:56 AM,-23.8,-9999,N/A,30.00,8.0,WSW,10.4,-,N/A,,Clear,250,2013-03-25 17:56:00
10:16 AM,-9999,-9999,N/A,29.99,1.8,WSW,10.4,-,N/A,,Clear,250,2013-03-25 18:16:00
10:36 AM,-23.8,-9999,N/A,29.99,1.5,WSW,8.1,-,N/A,,Clear,250,2013-03-25 18:36:00
10:56 AM,-9999,-9999,N/A,29.98,2.0,West,12.7,-,N/A,,Clear,260,2013-03-25 18:56:00
11:16 AM,-9999,-9999,N/A,29.98,2.0,West,12.7,-,N/A,,Clear,260,2013-03-25 19:16:00
11:36 AM,-22.0,-9999,N/A,29.99,4.0,WSW,12.7,-,N/A,,Clear,250,2013-03-25 19:36:00
11:56 AM,-20.2,-9999,N/A,29.98,4.0,West,10.4,-,N/A,,Clear,260,2013-03-25 19:56:00
12:16 PM,-20.2,-23.8,83,29.98,4.0,West,13.8,-,N/A,,Clear,260,2013-03-25 20:16:00
12:36 PM,-20.2,-29.2,63,29.97,5.0,WSW,13.8,-,N/A,,Clear,250,2013-03-25 20:36:00
12:56 PM,-18.4,-27.4,63,29.97,4.0,West,12.7,17.3,N/A,,Clear,260,2013-03-25 20:56:00
1:16 PM,-18.4,-18.4,100,29.97,2.0,WSW,11.5,-,N/A,,Scattered Clouds,250,2013-03-25 21:16:00
1:36 PM,-16.6,-9999,N/A,29.97,4.0,WSW,11.5,17.3,N/A,,Partly Cloudy,250,2013-03-25 21:36:00
1:56 PM,-16.6,-18.4,92,29.97,3.0,West,10.4,-,N/A,,Clear,260,2013-03-25 21:56:00
2:16 PM,-16.6,-29.2,53,29.96,4.0,WSW,11.5,-,N/A,,Clear,250,2013-03-25 22:16:00
2:36 PM,-16.6,-23.8,70,29.95,5.0,WSW,12.7,-,N/A,,Clear,250,2013-03-25 22:36:00
2:56 PM,-16.6,-23.8,70,29.95,7.0,West,16.1,-,N/A,,Clear,260,2013-03-25 22:56:00
3:16 PM,-14.8,-29.2,48,29.95,10.0,West,12.7,-,N/A,,Clear,260,2013-03-25 23:16:00
3:36 PM,-14.8,-9999,N/A,29.95,10.0,West,11.5,-,N/A,,Clear,260,2013-03-25 23:36:00
3:56 PM,-14.8,-9999,N/A,29.94,9.0,West,15.0,-,N/A,,Clear,260,2013-03-25 23:56:00
4:16 PM,-13.0,-9999,N/A,29.94,10.0,West,13.8,-,N/A,,Clear,260,2013-03-26 00:16:00
4:36 PM,-11.2,-9999,N/A,29.94,10.0,West,13.8,-,N/A,,Clear,260,2013-03-26 00:36:00
4:56 PM,-11.2,-9999,N/A,29.94,10.0,West,16.1,-,N/A,,Clear,260,2013-03-26 00:56:00
5:16 PM,-11.2,-9999,N/A,29.94,10.0,West,13.8,-,N/A,,Clear,260,2013-03-26 01:16:00
5:36 PM,-11.2,-9999,N/A,29.94,10.0,West,13.8,-,N/A,,Clear,260,2013-03-26 01:36:00
5:56 PM,-11.2,-25.6,49,29.93,10.0,West,12.7,18.4,N/A,,Clear,260,2013-03-26 01:56:00
6:16 PM,-9.4,-23.8,49,29.94,10.0,West,13.8,-,N/A,,Partly Cloudy,260,2013-03-26 02:16:00
6:36 PM,-9.4,-22.0,54,29.94,10.0,West,10.4,-,N/A,,Partly Cloudy,260,2013-03-26 02:36:00
6:56 PM,-9.4,-20.2,59,29.94,10.0,West,10.4,-,N/A,,Clear,270,2013-03-26 02:56:00
7:16 PM,-9.4,-20.2,59,29.94,10.0,West,10.4,-,N/A,,Clear,260,2013-03-26 03:16:00
7:36 PM,-11.2,-20.2,64,29.94,10.0,West,10.4,-,N/A,,Clear,260,2013-03-26 03:36:00
7:56 PM,-11.2,-18.4,70,29.94,10.0,West,11.5,-,N/A,,Clear,260,2013-03-26 03:56:00
8:16 PM,-11.2,-18.4,70,29.94,10.0,West,10.4,-,N/A,,Clear,260,2013-03-26 04:16:00
8:36 PM,-11.2,-18.4,70,29.94,10.0,West,10.4,-,N/A,,Scattered Clouds,260,2013-03-26 04:36:00
8:56 PM,-11.2,-20.2,64,29.93,10.0,West,10.4,-,N/A,,Scattered Clouds,260,2013-03-26 04:56:00
9:16 PM,-11.2,-22.0,59,29.94,10.0,West,11.5,-,N/A,,Mostly Cloudy,260,2013-03-26 05:16:00
9:36 PM,-11.2,-18.4,70,29.94,10.0,West,9.2,-,N/A,,Overcast,260,2013-03-26 05:36:00
9:56 PM,-11.2,-23.8,54,29.94,10.0,WSW,8.1,-,N/A,,Mostly Cloudy,250,2013-03-26 05:56:00
10:16 PM,-13.0,-22.0,64,29.93,10.0,WSW,8.1,-,N/A,,Partly Cloudy,250,2013-03-26 06:16:00
10:36 PM,-13.0,-22.0,64,29.94,10.0,WSW,9.2,-,N/A,,Clear,250,2013-03-26 06:36:00
10:56 PM,-13.0,-20.2,70,29.93,10.0,WSW,10.4,-,N/A,,Clear,240,2013-03-26 06:56:00
11:16 PM,-13.0,-18.4,77,29.93,10.0,WSW,12.7,-,N/A,,Clear,240,2013-03-26 07:16:00
11:36 PM,-13.0,-23.8,59,29.93,10.0,WSW,11.5,-,N/A,,Clear,250,2013-03-26 07:36:00
11:56 PM,-13.0,-18.4,77,29.94,5.0,WSW,11.5,-,N/A,,Clear,250,2013-03-26 07:56:00